SC

Sooner Challenge - LOFT FLY

Station: Inventory - T Race

Distance: 10 Miles    

Release: 27-Jun-2019 09:30

Weather Release:    Arrival:

Wind at Release:     Wind at Arrival:

Temp at Release: °    Temp at Arrival: °

Lofts: 138

Birds: 485

Clocked: 456

Good Luck to Everyone!
Drops Pos Breeder Pigeon Name Color Sex Ent Arrival Speed To Win Eligible PlatAOC
1 Bruce Daehn - FL 0125-AU19-NWFI CK H 1 09:39:32.53 1844.445 00:00:00 Yes
2 Callahan Loft - MO 1829-AU19-AA WHIT H 1 09:40:21.61 1698.814 00:00:49 Yes
3 Mazzurco Loft - FL 0143-AU19-CCPF BBWF H 1 09:40:41.70 1645.629 00:01:09 Yes
4 Best Loft - IL 0054-AU19-BEST CK H 1 09:40:48.43 1628.549 00:01:16 Yes
5 Peters - GA 0026-AU19-PETE PETERS 1 CK H 1 09:41:21.31 1549.955 00:01:49 Yes
6 Garde Loft - NM 1934-AU19-GARD H 1 09:41:32.40 1525.130 00:02:00 Yes
7 B & B Loft 4 - TX 0533-AU19-NSL 12232X867 BB H 1 09:41:34.89 1519.643 00:02:02 Yes
8 Peters - GA 0042-AU19-PETE BIG TIME GRZL H 2 09:42:52.20 1367.521 00:03:20 Yes
9 Ken Easley & Son Racing - NM 5218-AU19-EASL Dr Pepper GRZL H 1 09:42:53.34 1365.488 00:03:21 Yes
10 A P C Loft - TX 19233-AU19-APC BB H 1 09:45:00.09 1173.216 00:05:28 Yes
11 P N A Loft - CA 1929-AU19-PNA BB H 1 09:45:42.40 1120.543 00:06:10 Yes
12 Joe Zarachowicz - MD 0247-IF19-CCC WHIT H 1 09:46:35.22 1061.072 00:07:03 Yes
13 Vipers Loft - TX 1832-AU19-WACO CK H 1 09:46:36.69 1059.507 00:07:04 Yes
14 1mo/Show - FL 0368-AU19-NWFI mugger BB H 1 09:47:16.69 1018.617 00:07:44 Yes
15 Nanez Family Lofts - WI 9159-AU19-NANE BB H 1 09:47:36.59 999.432 00:08:04 Yes
16 Cherokee Loft - MI 0307-AU19-NWM BB H 1 09:48:29.22 952.020 00:08:57 Yes
17 Greg Morgan - KS 0297-AU19-SLF CKWF H 1 09:48:43.20 940.171 00:09:11 Yes
18 Bruce Daehn - FL 0133-AU19-NWFI CK H 2 09:48:59.40 926.804 00:09:27 Yes
19 Vipers Loft - TX 1824-AU19-WACO CKWF H 2 09:49:12.41 916.333 00:09:40 Yes
20 Adams Loft - PA 0309-AU19-BMR CKWF H 1 09:49:37.17 897.059 00:10:05 Yes
21 Wing & A Prayer - WI 5752-AU19-FOYS BBWF H 1 09:49:59.49 880.374 00:10:27 Yes
22 A P C Loft - TX 19269-AU19-APC BB H 2 09:50:11.98 871.294 00:10:39 Yes
23 A P C Loft - TX 19262-AU19-APC BB H 3 09:50:22.07 864.108 00:10:50 Yes
24 Haven Loft - MN 1923-AU19-BAIL BB H 1 09:50:45.97 847.526 00:11:13 Missing
25 Bruce Daehn - FL 0123-AU19-NWFI BBWF H 3 09:50:46.08 847.451 00:11:14 Yes
26 Adams Loft - PA 5553-IF19-TDM BB H 2 09:50:46.83 846.948 00:11:14 Yes
27 Robert Cole Loft - IL 15823-AU19-AA BB H 1 09:50:55.52 841.079 00:11:23 Yes
28 Michael Hibbard - OH 0117-AU19-HIBB CK H 1 09:51:34.83 815.545 00:12:02 Yes
29 Horta Loft - IN 5307-AU19-JEDD RED H 1 09:51:58.90 800.661 00:12:26 Yes
30 A P C Loft - TX 19088-AU19-APC GRZL H 4 09:52:11.80 792.906 00:12:39 Yes
31 Nanez Family Lofts - WI 9195-AU19-NANE GRZL H 2 09:52:22.13 786.809 00:12:50 Yes
32 7 Cha Brothers Loft - MN 11705-AU19-JEDD SILV H 1 09:52:34.32 779.727 00:13:02 Yes
33 Taylor Loft - NM 19060-AU19-NMRP Top Gun CK H 1 09:52:39.64 776.670 00:13:07 Yes
34 Larry Jensen - IA 1368-AU19-SCIA GRWF H 1 09:52:48.96 771.383 00:13:16 Yes
35 Baptista - IL 0072-AU19-FAMP BBSP H 1 09:53:12.10 758.561 00:13:40 Yes
36 Lsu Loft - LA 0220-AU19-LSU GRZL H 1 09:53:19.22 754.706 00:13:47 Yes
37 Cuevas Classic - TX 3930-AU19-DALL CK H 1 09:53:23.02 752.657 00:13:50 Yes
38 J & J Loft Of Tx. - TX 1671-AU19-WACO 52 x 56374 BB H 1 09:53:37.58 744.932 00:14:05 Yes
39 Cherokee Loft - MI 0570-AU19-CHER GRZL H 2 09:53:56.12 735.315 00:14:24 Yes
40 Bruce Daehn - FL 0136-AU19-NWFI BB H 4 09:54:00.11 733.277 00:14:28 Yes
41 Lsu Loft - LA 0227-AU19-LSU GRZL H 2 09:54:04.92 730.836 00:14:32 Yes
42 Baldwin & Tilson - NC 9154-AU19-TENT 8109-8163 BBWF H 1 09:54:06.26 730.154 00:14:34 Yes
43 Bruce Daehn - FL 0148-AU19-NWFI CK H 5 09:54:42.73 712.195 00:15:10 Yes
44 Evolution Racing - UT 7709-AU19-OGN CK H 1 09:54:58.25 704.822 00:15:26 Yes
45 Jeff Murray - WI 1119-AU19-RRR BB H 1 09:55:03.65 702.286 00:15:31 Yes
46 M&l Loft - TX 2013-AU19-PINE CK H 1 09:55:09.02 699.792 00:15:36 Yes
47 Bruce Daehn - FL 0120-AU19-NWFI BB H 6 09:55:44.75 683.606 00:16:12 Yes
48 Hugo Family Loft - IL 0307-IF19-HRFL BBWF H 1 09:56:00.41 676.745 00:16:28 Yes
49 Ken Easley & Son Racing - NM 5244-AU19-EASL Mountain Dew BBWF H 2 09:56:18.52 668.981 00:16:46 Yes
50 L & D Loft - TX 3133-AU19-TEXA BB H 1 09:56:43.04 658.748 00:17:11 Yes
51 Mandy Loft - FL 2109-AU19-VITA BB H 1 09:56:51.39 655.335 00:17:19 Yes
52 Kastle Loft - KY 1963-AU19-KAST Unforgettable Fire BB H 1 09:57:35.93 637.708 00:18:03 Yes
53 Little Reata Loft - TX 19714-AU19-JETT DKCK H 1 09:57:36.54 637.473 00:18:04 Yes
54 Marengo Creek Farms - AL 3375-AU19-MCF BBWF H 1 09:57:54.61 630.591 00:18:22 Yes
55 3 Stars & A Sun Loft - TX 0420-AU19-3STA GRZL H 1 09:57:58.77 629.032 00:18:26 Yes
56 No Mercy Syndicate - IL 0018-AU19-NOME BB H 1 09:58:15.09 622.976 00:18:43 Yes
57 Dal-Tex R P C - TX 0092-AU19-DALT BB H 1 09:58:37.22 614.947 00:19:05 Yes
58 Thunder Birds Breeding Loft - TX 25936-AU19-JEDD Super Karma! BB H 1 09:58:50.40 610.260 00:19:18 Missing
59 Lsu Loft - LA 0204-AU19-LSU GRZL H 3 09:58:56.33 608.179 00:19:24 Yes
60 Baldwin & Tilson - NC 9133-AU19-TENT 1148-6263 BB H 2 09:59:11.71 602.840 00:19:39 Yes
61 Andy Skwiat - IN 0152-AU19-ANDY BB H 1 10:00:05.64 584.831 00:20:33 Yes
62 Rdm Syndicate - ON 10914-AU19-AA BBWF H 1 10:00:18.23 580.785 00:20:46 Yes
63 Sc7 - NY 0951-IF19-SQC BB H 1 10:00:22.61 579.386 00:20:50 Yes
64 Greg Morgan - KS 0218-AU19-SLF GRZL H 2 10:00:40.34 573.807 00:21:08 Yes
65 Wing & A Prayer - WI 5753-AU19-FOYS BB H 2 10:00:42.48 573.141 00:21:10 Yes
66 Team Catskill USA - NH 2119-AU19-CATS SUGAR SPOON GRZL H 1 10:00:52.22 570.127 00:21:20 Yes
67 Garde Loft - NM 1963-AU19-GARD BB H 2 10:00:53.69 569.675 00:21:21 Yes
68 Adams Loft - PA 0504-IF19-NKC CKWF H 3 10:01:07.18 565.556 00:21:35 Yes
69 Michael Hibbard - OH 0115-AU19-HIBB CKWF H 2 10:01:10.20 564.642 00:21:38 Yes
70 Savitar Loft - MN 0087-AU19-BOUR CK H 1 10:01:14.69 563.293 00:21:42 Yes
71 Adams Loft - PA 0407-IF19-FSJ CK H 4 10:01:24.08 560.486 00:21:52 Yes
72 Dickson Loft - OK 0131-AU19-DICK BB H 1 10:02:08.20 547.661 00:22:36 Yes
73 Little Reata Loft - TX 19710-AU19-JETT BB H 2 10:02:29.80 541.594 00:22:57 Yes
74 Duffy's Loft - TX 0328-AU19-AMA BB H 1 10:02:50.88 535.801 00:23:18 Yes
75 Best Loft - IL 0059-AU19-BEST BB H 2 10:02:57.09 534.118 00:23:25 Yes
76 Cloux Loft - CO 9747-AU19-FH Juanita GRZL H 1 10:03:08.79 530.976 00:23:36 Yes
77 Russell Hall - TX 9413-AU19-HALL RB H 1 10:03:11.52 530.246 00:23:39 Yes
78 Haven Loft - MN 9620-AU19-MM DKCK H 2 10:03:43.20 521.945 00:24:11 Yes
79 Bruce Daehn - FL 0121-AU19-NWFI GRZL H 7 10:04:12.89 514.397 00:24:40 Yes
80 Goshentown Lofts - TN 7675-AU19-NASH CK H 1 10:04:26.02 511.128 00:24:53 Yes
81 7 Cha Brothers Loft - MN 11701-AU19-JEDD SILV H 2 10:05:00.89 502.644 00:25:28 Yes
82 Steven Loft - TX 0036-AU19-YE BB H 1 10:05:04.40 501.806 00:25:32 Yes
83 Lsu Loft - LA 0206-AU19-LSU GRZL H 4 10:05:06.93 501.203 00:25:34 Yes
84 Joe Zarachowicz - MD 0242-IF19-CCC BB H 2 10:06:05.29 487.692 00:26:33 Yes
85 Apple Cup - WA 2516-AU19-YAK CK H 1 10:06:19.92 484.421 00:26:47 Yes
86 Lucky 13 - OK 8318-AU19-TIPC ANCK H 1 10:06:24.76 483.348 00:26:52 Yes
87 Tex-Mex Loft - TX 0140-AU19-TXMX Texas Hun BB H 1 10:06:35.60 480.960 00:27:03 Yes
88 Joe Zarachowicz - MD 0219-IF19-CCC BB H 3 10:06:36.79 480.701 00:27:04 Yes
89 C F L - LA 0571-AU19-CFL DKCK H 1 10:06:44.77 478.962 00:27:12 Yes
90 Dickson Loft - OK 0118-AU19-DICK BB H 2 10:06:48.69 478.109 00:27:16 Yes
91 Columba Loft - GA 9188-AU19-LYNC BB H 1 10:06:53.69 477.032 00:27:21 Yes
92 Nanez Family Lofts - WI 9104-AU19-NANE DKGR H 3 10:07:05.21 474.562 00:27:33 Yes
93 Bell/Mcanally Loft - TX 9106-AU19-BELL BB H 1 10:07:06.25 474.340 00:27:34 Yes
94 Price Brothers 2 - PA 0511-IF19-UPC BB H 1 10:07:21.84 471.040 00:27:49 Yes
95 Whiskey Hollow Loft - TX 1311-AU19-WACO CK H 1 10:07:31.81 468.956 00:27:59 Yes
96 J & J Loft Of Tx. - TX 1658-AU19-WACO 284 x 792 BB H 2 10:07:35.01 468.289 00:28:02 Yes
97 Bruce Daehn - FL 0122-AU19-NWFI CK H 8 10:07:58.03 463.556 00:28:26 Yes
98 Thao Bros - MN 0322-AU19-VIK BB H 1 10:09:05.78 450.168 00:29:33 Yes
99 Hale Nūnū - VA 0009-US19-HALE BBWF H 1 10:09:24.84 446.540 00:29:52 Yes
100 Himes Family Loft 2 - OK 21716-AU19-AA BB H 1 10:09:30.24 445.523 00:29:58 Yes

There are 526 bird records

Note: These Race Results are unofficial and subject to change until verified by the Race Committee and declared final.